Chesapeake, VA

4:27 AM EDT on September 26, 2016 (GMT -0400)
Fentress Naval Air Landing Field

Weather History for KNFE - March, 2014

Change the Weather History Date:

Tuesday, March 11, 2014

  Actual Average (KORF) Record (KORF)
Temperature  
Mean Temperature 66 °F 48 °F  
Max Temperature 82 °F 57 °F 82 °F (1986)
Min Temperature 51 °F 39 °F 21 °F (1960)
Degree Days  
Heating Degree Days 0 17  
Month to date heating degree days 205  
Since 1 July heating degree days 2774  
Cooling Degree Days 1 0  
Month to date cooling degree days 0  
Year to date cooling degree days 1  
Growing Degree Days 16 (Base 50)    
Moisture  
Dew Point 36 °F    
Average Humidity 38    
Maximum Humidity 59    
Minimum Humidity 18    
Precipitation  
Precipitation 0.00 in 0.12 in 1.15 in (1936)
Month to date precipitation 1.30  
Year to date precipitation 7.82  
Snow  
Snow 0.00 in 0.00 in 0.50 in (1924)
Month to date snowfall 0.1  
Since 1 July snowfall 5.7  
Snow Depth -    
Sea Level Pressure  
Sea Level Pressure 29.72 in    
Wind  
Wind Speed 3 mph (SSW)    
Max Wind Speed 12 mph    
Max Gust Speed 18 mph    
Visibility 10 miles    
Events Rain    
T = Trace of Precipitation, MM = Missing Value Source: NWS Daily Summary

Daily Weather History Graph

Daily Weather History Graph

Search for Another Location

Airport or City:

Trip Planner

Search our weather history database for the weather conditions in past years. The results will help you decide how hot, cold, wet, or windy it might be!

Date:

Astronomy

Mar. 11, 2014 Rise Set
Actual Time 7:21 AM EDT 7:08 PM EDT
Civil Twilight 6:55 AM EDT 7:34 PM EDT
Nautical Twilight 6:25 AM EDT 8:04 PM EDT
Astronomical Twilight 5:55 AM EDT 8:34 PM EDT
Moon 2:48 PM EDT (3/11) 4:07 AM EDT (3/11)
Length of Visible Light 12h 38m
Length of Day
11h 47m
Waxing Gibbous, 78% of the Moon is Illuminated
Mar 11
Waxing Gibbous
Mar 16
Full
Mar 23
Last Quarter
Mar 30
New
Apr 7
First Quarter

Hourly Weather History & Observations

Time (EDT) Temp. Dew Point Humidity Pressure Visibility Wind Dir Wind Speed Gust Speed Precip Events Conditions
12:56 AM 57.9 °F 33.1 °F 39% 29.75 in 10.0 mi Variable 4.6 mph - N/A   Clear
1:56 AM 57.0 °F 34.0 °F 42% 29.74 in 10.0 mi Calm Calm - N/A   Clear
2:56 AM 55.0 °F 33.1 °F 43% 29.73 in 10.0 mi Calm Calm - N/A   Clear
3:56 AM 55.0 °F 33.1 °F 43% 29.72 in 10.0 mi Calm Calm - N/A   Clear
4:56 AM 55.0 °F 34.0 °F 45% 29.70 in 10.0 mi Calm Calm - N/A   Clear
5:56 AM 54.0 °F 35.1 °F 49% 29.72 in 10.0 mi SSW 3.5 mph - N/A   Clear
6:56 AM 52.0 °F 34.0 °F 50% 29.74 in 10.0 mi Calm Calm - N/A   Clear
7:56 AM 51.1 °F 37.0 °F 59% 29.75 in 10.0 mi Calm Calm - N/A   Clear
8:56 AM 59.0 °F 36.0 °F 42% 29.76 in 10.0 mi Calm Calm - N/A   Clear
9:56 AM 64.9 °F 37.0 °F 36% 29.76 in 10.0 mi Variable 4.6 mph - N/A   Clear
10:56 AM 71.1 °F 37.9 °F 30% 29.77 in 9.0 mi Variable 3.5 mph - N/A   Clear
11:56 AM 75.0 °F 35.1 °F 23% 29.77 in 9.0 mi Calm Calm - N/A   Clear
12:56 PM 78.1 °F 33.1 °F 19% 29.75 in 10.0 mi Variable 3.5 mph - N/A   Clear
1:56 PM 80.1 °F 34.0 °F 19% 29.72 in 10.0 mi South 11.5 mph - 0.00 in Rain Light Rain
2:56 PM 81.0 °F 33.1 °F 18% 29.68 in 10.0 mi South 10.4 mph 18.4 mph 0.00 in Rain Light Rain
3:56 PM 81.0 °F 34.0 °F 18% 29.66 in 10.0 mi South 10.4 mph - 0.00 in Rain Light Rain
4:56 PM 81.0 °F 36.0 °F 20% 29.65 in 10.0 mi South 10.4 mph - 0.00 in Rain Light Rain
5:56 PM 79.0 °F 36.0 °F 21% 29.65 in 10.0 mi SW 6.9 mph - 0.00 in Rain Light Rain
6:56 PM 73.9 °F 37.9 °F 27% 29.67 in 10.0 mi SSW 4.6 mph - 0.00 in   Clear
7:56 PM 64.0 °F 42.1 °F 45% 29.69 in 10.0 mi Calm Calm - N/A   Clear
8:56 PM 59.0 °F 43.0 °F 55% 29.70 in 10.0 mi Calm Calm - N/A   Clear
9:56 PM 57.9 °F 42.1 °F 56% 29.70 in 10.0 mi Calm Calm - N/A   Clear
10:56 PM 57.0 °F 42.1 °F 57% 29.71 in 10.0 mi South 4.6 mph - N/A   Clear
11:56 PM 57.0 °F 43.0 °F 59% 29.68 in 10.0 mi Calm Calm - N/A   Clear